OZ1IEP-5 Weather Reports


time (UTC)temp
C
wind
direction
speed
KPH
gust
KPH
rain 1hr
cm
rain 24hr
cm
rain mn
cm
humidity
%
barometer
mb
20260904074006 15 170 0.0 9.7 0.00 0.36 0.08 91 1002.0
20260904073008 15 170 1.6 9.7 0.00 0.36 0.08 91 1001.9
20260904072006 15 170 0.0 0.0 0.00 0.38 0.08 91 1002.0
20260904071006 15 163 0.0 3.2 0.00 0.38 0.08 91 1002.3
20260904070008 15 190 0.0 4.8 0.00 0.38 0.08 91 1002.4
20260904065006 15 163 0.0 4.8 0.00 0.41 0.08 91 1002.5
20260904064006 15 198 0.0 3.2 0.00 0.41 0.08 91 1002.7
20260904063008 15 209 0.0 0.0 0.00 0.41 0.08 91 1002.9
20260904062006 15 192 0.0 1.6 0.00 0.41 0.08 91 1003.0
20260904061005 15 199 0.0 0.0 0.00 0.41 0.08 91 1003.0
20260904060008 15 217 0.0 0.0 0.00 0.41 0.08 90 1003.1
20260904055006 15 231 0.0 11.3 0.00 0.43 0.08 90 1003.3
20260904054006 15 198 0.0 9.7 0.00 0.43 0.08 90 1003.6
20260904053008 15 248 0.0 8.0 0.00 0.43 0.08 90 1003.7
20260904052005 15 219 0.0 0.0 0.00 0.43 0.08 90 1003.9
20260904051005 15 209 0.0 1.6 0.00 0.43 0.08 90 1003.8
20260904050008 15 203 0.0 8.0 0.00 0.43 0.08 90 1004.0
20260904045006 15 236 0.0 8.0 0.00 0.43 0.08 90 1004.0
20260904044005 15 227 1.6 8.0 0.00 0.43 0.08 90 1004.0
20260904043008 15 226 0.0 4.8 0.00 0.43 0.08 90 1004.0
20260904042007 15 218 0.0 19.3 0.00 0.43 0.08 89 1004.0
20260904041006 15 227 0.0 9.7 0.00 0.43 0.08 89 1003.8
20260904040011 15 239 0.0 9.7 0.00 0.43 0.08 89 1004.0
20260904035007 15 230 0.0 19.3 0.00 0.43 0.08 90 1004.1
20260904034007 15 253 0.0 22.5 0.00 0.43 0.08 90 1004.4
20260904033010 15 226 1.6 14.5 0.00 0.43 0.08 90 1004.3
20260904032007 15 224 1.6 11.3 0.00 0.43 0.08 90 1004.6
20260904031007 15 263 1.6 16.1 0.00 0.43 0.08 91 1004.6
20260904030008 15 235 3.2 20.9 0.00 0.43 0.08 91 1004.6
20260904025006 15 242 3.2 19.3 0.00 0.43 0.08 91 1004.6
20260904024005 15 228 3.2 14.5 0.00 0.43 0.08 91 1004.5
20260904023009 15 240 3.2 14.5 0.00 0.43 0.08 92 1004.9
20260904022006 15 243 3.2 19.3 0.00 0.43 0.08 92 1004.7
20260904021006 15 218 3.2 16.1 0.00 0.43 0.08 92 1004.8
20260904020009 15 249 0.0 19.3 0.00 0.43 0.08 92 1005.1
20260904015006 15 228 3.2 19.3 0.00 0.43 0.08 92 1005.1
20260904014008 15 240 1.6 19.3 0.00 0.46 0.08 93 1005.1
20260904013009 15 243 3.2 19.3 0.00 0.46 0.08 93 1005.1
20260904012006 15 240 1.6 19.3 0.00 0.46 0.08 93 1005.1
20260904011006 15 227 1.6 19.3 0.03 0.51 0.08 93 1005.1
20260904010008 15 225 0.0 1.6 0.03 0.51 0.08 93 1005.2
20260904005006 15 224 0.0 3.2 0.03 0.51 0.08 93 1005.2
20260904004006 15 244 0.0 4.8 0.03 0.51 0.08 93 1005.5
20260904003008 15 278 0.0 9.7 0.05 0.51 0.08 92 1005.6
20260904002006 15 274 1.6 19.3 0.08 0.51 0.08 92 1005.6
20260904001005 15 255 0.0 4.8 0.05 0.48 0.05 92 1005.6
20260904000009 15 267 0.0 9.7 0.05 0.48 0.05 91 1005.6
20260903235006 15 247 0.0 14.5 0.05 0.48 0.05 91 1005.6
20260903234006 15 237 0.0 8.0 0.05 0.48 0.05 91 1005.6
20260903233008 16 260 0.0 9.7 0.05 0.46 0.05 90 1005.8
20260903232005 16 239 1.6 19.3 0.00 0.43 0.00 90 1005.6
20260903231006 16 237 1.6 25.7 0.00 0.43 0.00 90 1005.5
20260903230008 16 240 1.6 11.3 0.00 0.43 0.00 90 1005.5
20260903225006 16 242 0.0 3.2 0.00 0.43 0.00 90 1005.6
20260903224006 16 229 1.6 14.5 0.00 0.43 0.00 90 1005.7
20260903223008 16 238 0.0 11.3 0.00 0.43 0.00 89 1005.7
20260903222006 16 297 0.0 11.3 0.00 0.43 0.00 89 1005.7
20260903221006 16 228 1.6 16.1 0.00 0.43 0.00 89 1005.8
20260903220008 16 241 0.0 16.1 0.00 0.43 0.00 89 1005.7
20260903215005 16 238 1.6 11.3 0.00 0.43 0.43 89 1005.6
20260903214006 16 229 0.0 8.0 0.00 0.43 0.43 89 1005.6
20260903213008 16 259 0.0 20.9 0.00 0.43 0.43 89 1005.6
20260903212006 16 251 1.6 11.3 0.00 0.43 0.43 90 1005.7
20260903211006 16 234 0.0 11.3 0.00 0.43 0.43 90 1005.7
20260903210009 16 227 1.6 19.3 0.00 0.43 0.43 90 1005.7
20260903205005 16 244 1.6 19.3 0.00 0.43 0.43 90 1005.7
20260903204006 16 228 0.0 8.0 0.00 0.43 0.43 89 1005.8
20260903203008 16 244 1.6 14.5 0.00 0.43 0.43 89 1005.9
20260903202006 16 235 1.6 19.3 0.00 0.43 0.43 89 1005.7
20260903201005 16 239 1.6 14.5 0.00 0.43 0.43 89 1005.7
20260903200008 17 241 1.6 11.3 0.00 0.43 0.43 89 1005.6
20260903195006 17 243 1.6 16.1 0.00 0.43 0.43 89 1005.6
20260903194005 17 243 0.0 14.5 0.00 0.43 0.43 89 1005.6
20260903193008 17 239 1.6 14.5 0.00 0.43 0.43 89 1005.6
20260903192006 17 256 0.0 16.1 0.00 0.43 0.43 89 1005.6
20260903191006 17 222 1.6 14.5 0.00 0.43 0.43 89 1005.6
20260903190018 17 248 1.6 11.3 0.00 0.43 0.43 88 1005.4
20260903185006 17 227 0.0 19.3 0.00 0.43 0.43 88 1005.5
20260903184005 17 239 1.6 14.5 0.00 0.43 0.43 89 1005.4
20260903183009 17 233 1.6 11.3 0.00 0.43 0.43 89 1005.2
20260903182006 17 233 0.0 11.3 0.00 0.43 0.43 89 1005.1
20260903181006 17 255 1.6 14.5 0.00 0.43 0.43 89 1005.1
20260903180008 17 252 1.6 20.9 0.00 0.43 0.43 90 1005.1
20260903175005 18 231 1.6 20.9 0.00 0.43 0.43 90 1004.8
20260903174005 18 242 3.2 32.2 0.00 0.43 0.43 90 1004.7
20260903173010 18 228 3.2 24.1 0.00 0.43 0.43 91 1004.8
20260903172005 18 227 1.6 22.5 0.00 0.43 0.43 91 1004.6
20260903171005 18 221 1.6 25.7 0.00 0.43 0.43 91 1004.6
20260903170008 18 236 3.2 24.1 0.00 0.43 0.43 91 1004.5
20260903165006 18 231 3.2 20.9 0.00 0.43 0.43 92 1004.5
20260903164005 18 232 1.6 16.1 0.00 0.43 0.43 92 1004.5
20260903163007 18 230 3.2 22.5 0.00 0.43 0.43 92 1004.5
20260903162006 18 232 3.2 24.1 0.00 0.43 0.43 92 1004.5
20260903161005 18 221 6.4 25.7 0.00 0.43 0.43 93 1004.5
20260903160007 18 233 8.0 22.5 0.00 0.43 0.43 93 1004.6
20260903155005 18 233 8.0 25.7 0.00 0.43 0.43 93 1004.6
20260903154006 19 244 3.2 19.3 0.03 0.43 0.43 93 1004.7
20260903153008 18 228 9.7 25.7 0.03 0.43 0.43 93 1004.7
20260903152006 18 207 1.6 19.3 0.03 0.43 0.43 94 1004.7
20260903151006 18 207 1.6 19.3 0.08 0.43 0.43 94 1004.6
20260903150008 18 200 4.8 16.1 0.08 0.43 0.43 94 1004.6
20260903145005 18 199 4.8 19.3 0.08 0.43 0.43 94 1004.6
20260903144006 18 220 3.2 19.3 0.05 0.43 0.41 94 1004.6
20260903143007 17 174 4.8 16.1 0.05 0.43 0.41 94 1004.7
20260903142006 17 194 4.8 14.5 0.05 0.43 0.41 94 1005.1
20260903141005 17 173 3.2 9.7 0.00 0.38 0.33 94 1005.1
20260903140007 17 165 4.8 14.5 0.00 0.38 0.33 94 1005.2
20260903135005 17 176 6.4 19.3 0.00 0.41 0.33 94 1005.3
20260903134005 17 175 3.2 19.3 0.00 0.41 0.33 94 1005.2
20260903133008 17 199 3.2 16.1 0.00 0.46 0.33 94 1005.5
20260903132006 17 172 8.0 16.1 0.00 0.46 0.33 94 1005.3
20260903131005 17 159 4.8 11.3 0.00 0.48 0.33 94 1005.6
20260903130008 17 173 6.4 16.1 0.03 0.48 0.33 94 1005.6
20260903125005 17 200 3.2 14.5 0.03 0.48 0.33 94 1005.7
20260903124005 17 175 4.8 14.5 0.05 0.71 0.33 94 1005.7
20260903123008 17 161 4.8 14.5 0.05 0.74 0.33 94 1005.7
20260903122006 16 171 3.2 19.3 0.05 0.74 0.33 94 1006.0
20260903121005 16 168 6.4 19.3 0.05 0.74 0.33 94 1006.1
20260903120007 16 185 8.0 25.7 0.03 0.71 0.33 94 1006.1
20260903115005 16 170 8.0 19.3 0.03 0.71 0.33 94 1006.2
20260903114006 16 172 3.2 16.1 0.00 0.71 0.30 94 1006.2
20260903113008 16 173 8.0 20.9 0.00 0.71 0.30 94 1006.4
20260903112005 16 169 4.8 16.1 0.00 0.71 0.30 94 1006.4
20260903111006 16 168 9.7 19.3 0.00 0.71 0.30 94 1006.6
20260903110007 16 170 6.4 19.3 0.00 0.71 0.30 94 1006.7
20260903105005 16 170 8.0 16.1 0.03 0.71 0.30 94 1006.8
20260903104005 16 185 8.0 19.3 0.03 0.71 0.30 94 1006.9
20260903103007 16 159 8.0 19.3 0.03 0.71 0.30 94 1007.2
20260903102005 16 154 8.0 19.3 0.03 0.71 0.30 94 1007.2
20260903101005 16 145 8.0 19.3 0.05 0.71 0.30 94 1007.4
20260903100007 16 157 4.8 19.3 0.05 0.71 0.30 94 1007.6
20260903095005 16 142 8.0 16.1 0.05 0.69 0.28 94 1007.8
20260903094006 16 168 8.0 19.3 0.05 0.69 0.28 94 1008.1
20260903093007 16 171 6.4 14.5 0.08 0.69 0.28 94 1008.2
20260903092006 15 168 8.0 16.1 0.10 0.69 0.28 94 1008.3
20260903091005 15 164 4.8 16.1 0.10 0.66 0.25 94 1008.5
20260903090007 15 177 4.8 11.3 0.10 0.64 0.23 94 1008.6
20260903085006 15 181 3.2 9.7 0.08 0.61 0.23 94 1008.8
20260903084005 15 167 8.0 19.3 0.08 0.61 0.23 94 1008.8
20260903083008 15 162 3.2 4.8 0.05 0.61 0.20 94 1008.8
20260903082005 15 166 1.6 8.0 0.05 0.58 0.18 94 1008.9
20260903081006 15 165 3.2 11.3 0.05 0.56 0.15 94 1009.1
20260903080008 15 179 1.6 11.3 0.03 0.53 0.15 94 1009.2
20260903075006 15 176 6.4 11.3 0.05 0.53 0.15 94 1009.3